Temporada 2025 · Etapa 20

Mexico City Grand Prix

2025-10-26 · Autódromo Hermanos Rodríguez · Mexico · Mexico City Grand Prix · 71Lap · 305.354km
McLaren 1:37:58.574
Vitória de equipa 35pt P1 · P5
Ferrari +30.324
Red Bull +31.049
Volta mais rápida
1:20.052 · L50
Abandono
3
Fernando Alonso L34 Nico Hülkenberg L25 Liam Lawson L5
Clima
26°/51°
média ar/pista · seco · humidade 23%
Safety car
1
acionado na volta L70
Uso de pneus Direção de prova
Storylines · This Grand Prix & circuit
Conversão pole-vitória 12/25 48%
Most DNFs · all-time P13
Most SC/VSC · all-time P14
Circuito Info
Autódromo Hermanos Rodríguez Mexico City, Mexico
71Lap 305.354km 26 corridas held (1963–) Recorde de volta 1:17.774 · Valtteri Bottas (2021)
Recordes Watch · Active drivers ranked at this Grand Prix
P1 Max Verstappen 3 vitórias · GP #1
P2 Lando Norris 1 vitórias · → Max Verstappen -2
P2 Carlos Sainz 1 vitórias · → Max Verstappen -2
P1 Charles Leclerc 1 · GP #1
P1 Lando Norris 1 · GP #1
P1 Carlos Sainz 1 · GP #1
P1 Fernando Alonso 5 largadas · GP #1
P1 Pierre Gasly 5 largadas · GP #1
P1 Lewis Hamilton 5 largadas · GP #1
Corrida Trace · position by lap
VSC · voltas 70–71 largada parada SG 1 7 13 19 25 31 37 43 49 55 61 67 Norris · parada nos boxes L34 Norris NOR Norris NOR Leclerc · parada nos boxes L31 Leclerc LEC Leclerc LEC Verstappen · parada nos boxes L37 Verstappen VER Verstappen VER Bearman · parada nos boxes L24 Bearman · parada nos boxes L48 Bearman BEA Bearman BEA Piastri · parada nos boxes L24 Piastri · parada nos boxes L47 Piastri PIA Piastri PIA Antonelli · parada nos boxes L22 Antonelli · parada nos boxes L47 Antonelli ANT Antonelli ANT Russell · parada nos boxes L25 Russell · parada nos boxes L48 Russell RUS Russell RUS Hamilton · parada nos boxes L23 · punição cumprida Hamilton · parada nos boxes L47 Hamilton HAM Hamilton HAM Ocon · parada nos boxes L27 Ocon OCO Ocon OCO Bortoleto · parada nos boxes L37 Bortoleto BOR Bortoleto BOR Tsunoda · parada nos boxes L36 Tsunoda TSU Tsunoda TSU Albon · parada nos boxes L41 Albon ALB Albon ALB Hadjar · parada nos boxes L34 Hadjar HAD Hadjar HAD Stroll · parada nos boxes L26 Stroll · parada nos boxes L43 Stroll STR Stroll STR Gasly · parada nos boxes L33 Gasly GAS Gasly GAS Colapinto · parada nos boxes L48 Colapinto COL Colapinto COL Sainz · parada nos boxes L17 Sainz · parada nos boxes L46 · punição cumprida Sainz · parada nos boxes L56 · punição cumprida Sainz · parou L67 · classificado P17 Sainz SAI Sainz SAI Alonso · parada nos boxes L20 Alonso · abandono L34 Alonso ALO Alonso ALO Hülkenberg · abandono L25 Hülkenberg HUL Hülkenberg HUL Lawson · parada nos boxes L2 Lawson · abandono L5 Lawson LAW Lawson LAW
SC·VSC parada nos boxes punição cumprida nos boxes SG Grelha de partida carro parado posição em cada volta (desde 1996)
PosPilotoTeamGrelhaVoltaTempo / StatusPontos
1 4 Lando Norris McLaren 1 71 1:37:58.574 25
2 16 Charles Leclerc Ferrari 2 71 +30.324 18
3 1 Max Verstappen Red Bull 5 71 +31.049 15
4 87 Oliver Bearman Haas F1 Team 9 71 +40.955 12
5 81 Oscar Piastri McLaren 7 71 +42.065 10
6 12 Andrea Kimi Antonelli Mercedes 6 71 +47.837 8
7 63 George Russell FL Mercedes 4 71 +50.287 6
8 44 Lewis Hamilton Ferrari 3 71 +56.446 4
9 31 Esteban Ocon Haas F1 Team 11 71 +1:15.464 2
10 5 Gabriel Bortoleto Sauber 16 71 +1:16.863 1
11 22 Yuki Tsunoda Red Bull 10 71 +1:19.048
12 23 Alexander Albon Williams 17 70 +2.450
13 6 Isack Hadjar RB F1 Team 8 70 +6.656
14 18 Lance Stroll Aston Martin 19 70 +7.035
15 10 Pierre Gasly Alpine F1 Team 18 70 +44.080
16 43 Franco Colapinto Alpine F1 Team 20 70 +44.376
17 55 Carlos Sainz Williams 12 67
R 14 Fernando Alonso Aston Martin 14 34 Retired
R 27 Nico Hülkenberg Sauber 13 25 Retired
R 30 Liam Lawson RB F1 Team 15 5 Retired
PosPilotoTeamQ1Q2Q3Diferença para a pole
1 4 Lando Norris McLaren 1:16.899 1:16.252 1:15.586 POLE Q3
2 16 Charles Leclerc Ferrari 1:17.024 1:16.658 1:15.848 +0.262 Q3
3 44 Lewis Hamilton Ferrari 1:16.736 1:16.458 1:15.938 +0.352 Q3
4 63 George Russell Mercedes 1:16.895 1:16.537 1:16.034 +0.448 Q3
5 1 Max Verstappen Red Bull 1:17.076 1:16.605 1:16.070 +0.484 Q3
6 12 Andrea Kimi Antonelli Mercedes 1:17.291 1:16.773 1:16.118 +0.532 Q3
7 55 Carlos Sainz Williams 1:17.171 1:16.607 1:16.172 +0.586 Q3
8 81 Oscar Piastri McLaren 1:17.158 1:16.737 1:16.174 +0.588 Q3
9 6 Isack Hadjar RB F1 Team 1:16.733 1:16.804 1:16.252 +0.666 Q3
10 87 Oliver Bearman Haas F1 Team 1:17.040 1:16.787 1:16.460 +0.874 Q3
11 22 Yuki Tsunoda Red Bull 1:17.234 1:16.816 +1.230 Q2
12 31 Esteban Ocon Haas F1 Team 1:16.948 1:16.837 +1.251 Q2
13 27 Nico Hülkenberg Sauber 1:17.251 1:17.016 +1.430 Q2
14 14 Fernando Alonso Aston Martin 1:17.232 1:17.103 +1.517 Q2
15 30 Liam Lawson RB F1 Team 1:16.961 1:18.072 +1.375 Q1
16 5 Gabriel Bortoleto Sauber 1:17.412 +1.826 Q1
17 23 Alexander Albon Williams 1:17.490 +1.904 Q1
18 10 Pierre Gasly Alpine F1 Team 1:17.546 +1.960 Q1
19 18 Lance Stroll Aston Martin 1:17.606 +2.020 Q1
20 43 Franco Colapinto Alpine F1 Team 1:17.670 +2.084 Q1
Grelha de partida
Oficial
7
81 Oscar Piastri ▲1
8
6 Isack Hadjar ▲1
9
87 Oliver Bearman ▲1
10
22 Yuki Tsunoda ▲1
11
31 Esteban Ocon ▲1
12
55 Carlos Sainz ▼5
Pit Lane Speeding · Pit Lane Speeding (2nd)
15
18
19
Final grid as classificado, including any saída dos boxes largadas. Source: Jolpica-F1. The arrow compares the grid slot with the a qualificação classification; hover a drop to see the stewards document behind it.
Sem dados desta sessão.
PosPilotoMelhor voltaDiferençaVoltas
1 16 Charles Leclerc 1:18.380 29
2 12 Andrea Kimi Antonelli 1:18.487 +0.107 35
3 27 Nico Hülkenberg 1:18.760 +0.380 27
4 81 Oscar Piastri 1:18.784 +0.404 31
5 5 Gabriel Bortoleto 1:18.916 +0.536 28
6 41 Arvid Lindblad 1:18.997 +0.617 26
7 31 Esteban Ocon 1:19.038 +0.658 29
8 22 Yuki Tsunoda 1:19.090 +0.710 29
9 43 Franco Colapinto 1:19.331 +0.951 28
10 23 Alexander Albon 1:19.384 +1.004 33
11 6 Isack Hadjar 1:19.409 +1.029 32
12 14 Fernando Alonso 1:19.472 +1.092 26
Classified by best lap · source OpenF1 (2023+)
PosPilotoMelhor voltaDiferençaVoltas
1 1 Max Verstappen 1:17.392 34
2 16 Charles Leclerc 1:17.545 +0.153 32
3 12 Andrea Kimi Antonelli 1:17.566 +0.174 27
4 4 Lando Norris 1:17.643 +0.251 31
5 44 Lewis Hamilton 1:17.692 +0.300 30
6 63 George Russell 1:17.829 +0.437 33
7 22 Yuki Tsunoda 1:17.883 +0.491 31
8 14 Fernando Alonso 1:17.938 +0.546 29
9 55 Carlos Sainz 1:17.939 +0.547 34
10 18 Lance Stroll 1:17.954 +0.562 30
11 30 Liam Lawson 1:18.218 +0.826 32
12 81 Oscar Piastri 1:18.232 +0.840 31
13 31 Esteban Ocon 1:18.266 +0.874 31
14 6 Isack Hadjar 1:18.281 +0.889 30
15 5 Gabriel Bortoleto 1:18.323 +0.931 30
16 27 Nico Hülkenberg 1:18.348 +0.956 29
17 87 Oliver Bearman 1:18.442 +1.050 34
18 43 Franco Colapinto 1:18.721 +1.329 31
19 23 Alexander Albon 1:18.855 +1.463 31
20 10 Pierre Gasly 1:19.194 +1.802 30
Classified by best lap · source OpenF1 (2023+)
PosPilotoMelhor voltaDiferençaVoltas
1 4 Lando Norris 1:16.633 22
2 44 Lewis Hamilton 1:16.978 +0.345 29
3 63 George Russell 1:17.145 +0.512 19
4 16 Charles Leclerc 1:17.199 +0.566 26
5 81 Oscar Piastri 1:17.232 +0.599 23
6 1 Max Verstappen 1:17.242 +0.609 30
7 12 Andrea Kimi Antonelli 1:17.253 +0.620 19
8 6 Isack Hadjar 1:17.396 +0.763 19
9 22 Yuki Tsunoda 1:17.415 +0.782 23
10 5 Gabriel Bortoleto 1:17.526 +0.893 24
11 30 Liam Lawson 1:17.552 +0.919 20
12 31 Esteban Ocon 1:17.574 +0.941 26
13 18 Lance Stroll 1:17.598 +0.965 23
14 27 Nico Hülkenberg 1:17.664 +1.031 25
15 55 Carlos Sainz 1:17.801 +1.168 24
16 23 Alexander Albon 1:17.994 +1.361 20
17 87 Oliver Bearman 1:18.046 +1.413 23
18 10 Pierre Gasly 1:18.412 +1.779 24
19 43 Franco Colapinto 1:18.581 +1.948 22
20 14 Fernando Alonso 1:18.611 +1.978 12
Classified by best lap · source OpenF1 (2023+)
#PilotoTempo de voltaVolta
1 63 George Russell 1:20.052 L50
2 55 Carlos Sainz 1:20.098 L48
3 63 George Russell 1:20.377 L51
4 81 Oscar Piastri 1:20.422 L53
5 81 Oscar Piastri 1:20.466 L54
6 81 Oscar Piastri 1:20.466 L51
7 23 Alexander Albon 1:20.480 L45
8 81 Oscar Piastri 1:20.507 L52
9 23 Alexander Albon 1:20.548 L43
10 18 Lance Stroll 1:20.593 L45
Top 10 mais rápida race voltas — #1 is the mais rápida lap of a corrida(FL).
Pit stops · como se comparam
20s 25s 30s 35s mediana 22.6s Carlos Sainz · L56 · 17.969s · punição cumprida Alexander Albon · L41 · 22.040s Lance Stroll · L26 · 22.071s Oscar Piastri · L47 · 22.159s Oliver Bearman · L48 · 22.174s Isack Hadjar · L34 · 22.196s Charles Leclerc · L31 · 22.215s George Russell · L25 · 22.347s Gabriel Bortoleto · L37 · 22.410s George Russell · L48 · 22.470s Andrea Kimi Antonelli · L22 · 22.476s Carlos Sainz · L17 · 22.502s Lando Norris · L34 · 22.567s Oliver Bearman · L24 · 22.647s Max Verstappen · L37 · 22.762s Franco Colapinto · L48 · 22.789s Pierre Gasly · L33 · 22.834s Esteban Ocon · L27 · 23.203s Oscar Piastri · L24 · 23.211s Lewis Hamilton · L47 · 23.342s Lance Stroll · L43 · 23.713s Andrea Kimi Antonelli · L47 · 24.523s Fernando Alonso · L20 · 26.816s Carlos Sainz · L46 · 30.546s · punição cumprida Yuki Tsunoda · L36 · 31.630s Lewis Hamilton · L23 · 33.308s · punição cumprida Liam Lawson · L2 · 34.212s
mais rápida 17.969s Carlos Sainz mais lenta 34.212s Liam Lawson punição cumprida tempo de passagem pelos boxes — um ponto por paragem
PilotoParagemVoltaTempoPassagem pela saída dos boxes
30 Liam Lawson 1 2 14:06:17 34.212s
55 Carlos Sainz 1 17 14:27:14 22.502s
14 Fernando Alonso 1 20 14:31:29 26.816s
12 Andrea Kimi Antonelli 1 22 14:33:56 22.476s
44 Lewis Hamilton 1 23 14:35:15 33.308s
87 Oliver Bearman 1 24 14:36:39 22.647s
81 Oscar Piastri 1 24 14:36:46 23.211s
63 George Russell 1 25 14:38:08 22.347s
18 Lance Stroll 1 26 14:39:51 22.071s
31 Esteban Ocon 1 27 14:41:07 23.203s
16 Charles Leclerc 1 31 14:46:14 22.215s
10 Pierre Gasly 1 33 14:50:02 22.834s
6 Isack Hadjar 1 34 14:51:00 22.196s
4 Lando Norris 1 34 14:50:05 22.567s
22 Yuki Tsunoda 1 36 14:53:42 31.630s
1 Max Verstappen 1 37 14:54:47 22.762s
5 Gabriel Bortoleto 1 37 14:55:13 22.410s
23 Alexander Albon 1 41 15:00:56 22.040s
18 Lance Stroll 2 43 15:03:36 23.713s
55 Carlos Sainz 2 46 15:07:34 30.546s
81 Oscar Piastri 2 47 15:08:42 22.159s
12 Andrea Kimi Antonelli 2 47 15:08:41 24.523s
44 Lewis Hamilton 2 47 15:08:45 23.342s
43 Franco Colapinto 1 48 15:11:05 22.789s
63 George Russell 2 48 15:10:01 22.470s
87 Oliver Bearman 2 48 15:09:59 22.174s
55 Carlos Sainz 3 56 15:21:35 17.969s
paragens
SG 10 20 30 40 50 60 L71
4
1
S33
M38
16
1
S30
M41
1
1
M36
S35·+3
87
2
S23·+3
M24
S24·+3
81
2
S23·+3
M23
S25·+3
12
2
S21·+3
M25
S25·+3
63
2
S24·+3
M23
S24·+3
44
2
S22·+3
M24
S25·+3
31
1
S26
M45
5
1
M36
S35
22
1
M35
S36
23
1
H40
S30
6
1
M33
S37·+3
18
2
S25
M17·+1
S28·+1
10
1
M32
S38
43
1
H47
S23
55
3
M16
S29
S22·+13
14
1
S19
M15·+1
27
0
S25
30
1
S1
H4
S Soft M Medium H Hard I Intermediate W Wet SC·VSC parada nos boxes punição cumprida nos boxes
Corrida · largura da barra = voltas com esse jogo, ·+N = montado usado com N voltas prévias · fonte OpenF1 (2023+)
Compostos indicados para este Grande Prémio
C2 Duro C4 Médio C5 Macio
A Pirelli indica três dos seus compostos secos para cada prova; quanto maior o número C, mais macio é o pneu. Documento da FIA ↗
Mais posições ganhas em pista
18
+16
P19→P14
23
+14
P17→P12
31
+13
P11→P9
81
+12
P7→P5
12
+12
P6→P6
5
+11
P16→P10
6
+11
P8→P13
55
+11
P12→P17
Mais posições perdidas
Carlos Sainz −14 Lewis Hamilton −13 Isack Hadjar −13
Corrida · Soma das posições ganhas em pista volta a volta — excluem-se a volta de largada e as voltas de boxes do próprio piloto. Dados de voltas de corrida desde 1996.
PilotoTipoVoltaCumpridaAplicadaMotivo
44 Lewis Hamilton No further action Alleged Causing a collision with Car 1 at turn 1. (No further action.) Doc 38 ↗
Alleged Causing a collision with Car 1 at turn 1. (No further action.) Doc 38 ↗
44 Lewis Hamilton No further action The Piloto did not follow the Corrida Director’s Instruction for the use of the escape road at the exit of turn 4 (item 18.2 of the Event Notes). (No further action.) Doc 37 ↗
The Piloto did not follow the Corrida Director’s Instruction for the use of the escape road at the exit of turn 4 (item 18.2 of the Event Notes). (No further action.) Doc 37 ↗
55 Carlos Sainz Punição no grid ▼5 Pit Lane Speeding (2nd) · Pit Lane Speeding (P7 → P12)
▼5 Pit Lane Speeding (2nd) · Pit Lane Speeding (P7 → P12)
44 Lewis Hamilton Time penalty 16 23 +10s Car 44 left the track and gained a lasting advantage. (10 second time penalty.) Doc 36 ↗
Volta 16 · Cumprida 23 · +10s Car 44 left the track and gained a lasting advantage. (10 second time penalty.) Doc 36 ↗
55 Carlos Sainz Time penalty 27 46 +5s Pit lane speeding – 80.2 km/h (5 second time penalty.) Doc 33 ↗
Volta 27 · Cumprida 46 · +5s Pit lane speeding – 80.2 km/h (5 second time penalty.) Doc 33 ↗
55 Carlos Sainz Drive-through 56 56 Pit lane speeding – 89.8 km/h (Drive through penalty.) Doc 34 ↗
Volta 56 · Cumprida 56 Pit lane speeding – 89.8 km/h (Drive through penalty.) Doc 34 ↗
Volta = volta em que a punição foi aplicada · Cumprida = volta em que foi cumprida nos boxes (em branco: somada ao tempo de corrida)
Time, drive-through and stop-go penalties come from race control messages (OpenF1, 2023+). Grid penalties never appear there — the stewards publish them as documents after the session — so they are worked back from the starting grid against the a qualificação classification, which gives places actually lost rather than the figure written in the decision.
PilotoTipoVoltaCumpridaAplicadaMotivo
43 Franco Colapinto Voltas deletadas TRACK LIMITS (PIT)
TRACK LIMITS (PIT)
Volta = volta em que a punição foi aplicada · Cumprida = volta em que foi cumprida nos boxes (em branco: somada ao tempo de corrida)
Time, drive-through and stop-go penalties come from race control messages (OpenF1, 2023+). Grid penalties never appear there — the stewards publish them as documents after the session — so they are worked back from the starting grid against the a qualificação classification, which gives places actually lost rather than the figure written in the decision.
DocTítuloAssuntoPublished(CET)
1 Event Notes - Pirelli Preview ↗ 2025-10-22 23:09
2025-10-22 23:09 CET
2 Car Display Procedure ↗ 2025-10-24 00:38
2025-10-24 00:38 CET
3 Event Notes - Circuito Map, Pit Lane Drawing, Emergency Exits Map and Quarantine Zone Area ↗ 2025-10-24 01:21
2025-10-24 01:21 CET
4 Corrida Director's Event Notes ↗ 2025-10-24 01:51
2025-10-24 01:51 CET
5 PU elements usados per driver up to now ↗ 2025-10-24 16:55
2025-10-24 16:55 CET
7 Car Presentation Submissions ↗ 2025-10-24 18:00
2025-10-24 18:00 CET
8 Self Scrutineering ↗ 2025-10-24 18:28
2025-10-24 18:28 CET
9 Entry List ↗ 2025-10-24 18:31
2025-10-24 18:31 CET
10 Corrida Director's Event Notes V2 ↗ 2025-10-24 19:23
2025-10-24 19:23 CET
11 Summons - Car 89 - Alleged impeded by Car 36 at Turn 11 ↗ Patricio O'ward #89 2025-10-24 21:42
Patricio O'ward #89 2025-10-24 21:42 CET
12 Summons - Car 36 - Alleged impeding of Car 89 at Turn 11 ↗ Arvid Lindblad #36 2025-10-24 21:40
Arvid Lindblad #36 2025-10-24 21:40 CET
13 P1 Classification ↗ 2025-10-24 22:00
2025-10-24 22:00 CET
14 Infringement - Car 36 - Impeding car 89 in Turn 9 ↗ Arvid Lindblad #36 2025-10-24 23:27
Arvid Lindblad #36 2025-10-24 23:27 CET
15 P2 Classification ↗ 2025-10-25 01:18
2025-10-25 01:18 CET
16 Corrida Director Notes - SC2 - SC1 Times ↗ 2025-10-25 01:28
2025-10-25 01:28 CET
17 P1 and P2 Scrutineering ↗ 2025-10-25 02:26
2025-10-25 02:26 CET
19 Post-Classificação Procedure ↗ 2025-10-25 17:25
2025-10-25 17:25 CET
20 Corrida Director's Event Notes V3 ↗ 2025-10-25 17:37
2025-10-25 17:37 CET
21 P3 Classification ↗ 2025-10-25 20:45
2025-10-25 20:45 CET
22 Provisional Classificação Classification ↗ 2025-10-26 00:17
2025-10-26 00:17 CET
24 Classificação Deleted Volta Times ↗ 2025-10-26 00:40
2025-10-26 00:40 CET
25 Classificação SC2-SC1 Times ↗ 2025-10-26 00:40
2025-10-26 00:40 CET
26 P3 and Classificação Scrutineering ↗ 2025-10-26 02:02
2025-10-26 02:02 CET
27 Final Classificação Classification ↗ 2025-10-26 02:12
2025-10-26 02:12 CET
28 Provisional Starting Grid ↗ 2025-10-26 02:18
2025-10-26 02:18 CET
29 Pre-Corrida Procedure ↗ 2025-10-26 15:56
2025-10-26 15:56 CET
30 Post-Corrida Procedure ↗ 2025-10-26 15:59
2025-10-26 15:59 CET
31 Parts and parameters been replaced and or changed during Parc Fermé ↗ 2025-10-26 19:55
2025-10-26 19:55 CET
32 Final Starting Grid ↗ 2025-10-26 20:01
2025-10-26 20:01 CET
33 Infringement - Car 55 - Pit Lane Speeding ↗ 55 Carlos Sainz 2025-10-26 22:49
55 Carlos Sainz 2025-10-26 22:49 CET
34 Infringement - Car 55 - Pit Lane Speeding (2nd) ↗ 55 Carlos Sainz 2025-10-26 22:50
55 Carlos Sainz 2025-10-26 22:50 CET
35 Provisional Corrida Classification ↗ 2025-10-26 23:04
2025-10-26 23:04 CET
36 Infringement - Car 44 - Leaving the track and gaining an advantage ↗ 44 Lewis Hamilton 2025-10-26 23:23
44 Lewis Hamilton 2025-10-26 23:23 CET
37 Decision - Car 44 - Alleged failing to follow Corrida Directors instructions ↗ 44 Lewis Hamilton 2025-10-26 23:24
44 Lewis Hamilton 2025-10-26 23:24 CET
38 Decision - Car 44 - Alleged causing a collision ↗ 44 Lewis Hamilton 2025-10-26 23:26
44 Lewis Hamilton 2025-10-26 23:26 CET
39 Infringement - Corrida Deleted Volta Times ↗ 2025-10-26 23:30
2025-10-26 23:30 CET
40 Corrida Scrutineering ↗ 2025-10-27 00:32
2025-10-27 00:32 CET
41 Final Corrida Classification ↗ 2025-10-27 00:38
2025-10-27 00:38 CET
42 Campeonato Pontos ↗ 2025-10-27 00:51
2025-10-27 00:51 CET
FIA official decisions and documents (fia.com) · PDF original PDF links
Record Basis · Calculation basis
Corrida order is the final classification(post-race penalties applied) · a qualificação session data 2003+ · lap times 1996+ · pit stops 2012+ (pit-lane transit, not stationary time) · Abandono = Finished(Finished·+N Voltas) non-Finished statuses
Fontes de dados: Jolpica-F1 (Ergast compatible API) · weather·Direção de prova OpenF1 (2023+) · Last fetched: 2026-09-05 14:15